Regional Weather Roundup
Issued by NWS

Home | Current Version | Previous Version | Text Only | Print | Product List | Glossary Off
Versions: 1 2 3 4 5 6 7 8 9 10 11 12 13 14 15 16 17 18 19 20 21 22 23 24 25 26 27 28 29 30 31 32 33 34 35 36 37 38 39 40 41 42 43 44 45 46 47 48 49 50

000
ASUS43 KDMX 250306
RWRIA

WEATHER ROUNDUP FOR IOWA
NATIONAL WEATHER SERVICE DES MOINES IA
1000 PM CDT SUN SEP 24 2017

NOTE: "FAIR" INDICATES FEW OR NO CLOUDS BELOW 12,000 FEET WITH NO
SIGNIFICANT WEATHER AND/OR OBSTRUCTIONS TO VISIBILITY.

* - THESE STATIONS ARE NOT NWS STATIONS...THUS NOT UNDER NWS
QUALITY CONTROL.  THEY ALSO DO NOT REPORT WEATHER SUCH
AS PRECIPITATION OR FOG.

IAZ001>003-012>014-020>022-031>034-043>046-250400-
   NORTHWEST IOWA

CITY           SKY/WX    TMP DP  RH WIND       PRES   REMARKS
CARROLL *      CLOUDY    73  70  88 SW6G13    29.92F
CHEROKEE *     CLOUDY    64  63  96 N6        29.96R
DENISON *      MOCLDY    66  66 100 CALM      29.95R
LE MARS *      LGT RAIN  61  59  94 W8        29.99R
ORANGE CITY *  RAIN      63  61  94 W9        30.01R
SHELDON *      CLOUDY    61  59  94 NW8       29.96R
SIOUX CITY     LGT RAIN  60  59  96 N12       29.97R
SPENCER        CLOUDY    65  63  93 W3        29.95S
STORM LAKE *   MOCLDY    66  64  94 N8        29.94F FOG
$$

IAZ055>058-069>071-079>083-090>094-250400-
   SOUTHWEST IOWA

CITY           SKY/WX    TMP DP  RH WIND       PRES   REMARKS
ATLANTIC *     PTCLDY    70  68  94 CALM      29.92R
AUDUBON *      PTCLDY    68  64  88 CALM      29.94R
CLARINDA *     CLEAR     68  64  88 CALM      29.94R
COUNCIL BLFS * CLOUDY    70  70 100 NW9       29.93R
CRESTON *      PTCLDY    73  64  73 SE7       29.96R
HARLAN  *      MOCLDY    68  68 100 N3        29.96R
LAMONI         CLEAR     76  64  66 S5        29.94R
RED OAK *      MOCLDY    68  66  94 CALM      29.91S
SHENANDOAH *   CLEAR     73  64  73 SE6       29.91S
$$

IAZ047>049-059>061-072>074-084-250400-
   CENTRAL IOWA

CITY           SKY/WX    TMP DP  RH WIND       PRES   REMARKS
AMES           CLEAR     70  65  84 SE6       29.93R
ANKENY *       CLEAR     70  63  78 CALM      29.94R
BOONE *        PTCLDY    79  63  57 VRB6      29.93R HX  80
CHARITON *     CLEAR     72  63  73 SE6       29.94S
DES MOINES     PTCLDY    77  63  61 SE6       29.92R
GRINNELL*      CLEAR     74  63  68 SE5       29.96R
KNOXVILLE *    CLEAR     75  64  69 SE6       29.93S
MARSHALLTOWN   CLEAR     73  64  73 SE6       29.94R
NEWTON *       CLEAR     70  63  78 SE5       29.94S
PELLA *        CLEAR     75  63  64 SE5       29.94S
PERRY *          N/A     78  61  57 SE5       29.92S
$$

IAZ004>006-015-016-023>025-035-036-250400-
   NORTH CENTRAL IOWA

CITY           SKY/WX    TMP DP  RH WIND       PRES   REMARKS
ALGONA *       DRIZZLE   68  68 100 VRB5      29.95R
CLARION *      CLOUDY    73  64  73 W8        29.97R
ESTHERVILLE    MOCLDY    66  66 100 NW6       29.94S
FORT DODGE *   LGT RAIN  70  68  93 N5        29.93F
MASON CITY     PTCLDY    72  62  71 W5        29.96R
FOREST CITY *  MOCLDY    70  64  83 CALM      29.95R
WEBSTER CITY * MOCLDY    73  63  68 CALM      29.92F
IOWA FALLS *     N/A     72  63  72 SE7       29.95S
$$

IAZ007>011-017>019-026>030-037>042-050>054-066-250400-
   NORTHEAST IOWA

CITY           SKY/WX    TMP DP  RH WIND       PRES   REMARKS
CEDAR RAPIDS   CLEAR     72  63  73 SE3       29.95S
CHARLES CITY * CLEAR     73  63  68 S7        29.95R
CLINTON *      CLEAR    N/A N/A N/A SE8       29.99R
DECORAH *      CLEAR     73  64  73 SE7       29.95S
DUBUQUE        CLEAR     73  63  70 SE8       29.99S
MONTICELLO *   CLEAR     70  63  78 SE6       29.96S
OELWEIN *      CLEAR     72  64  78 SE7       29.97R
WATERLOO       CLEAR     75  62  64 SE9       29.93S
$$

IAZ064-065-067-068-078-250400-
   EAST CENTRAL IOWA

CITY           SKY/WX    TMP DP  RH WIND       PRES   REMARKS
DAVENPORT      CLEAR     69  64  84 SE5       29.99S
IOWA CITY      CLEAR     74  64  71 CALM      29.97R
MUSCATINE *    CLEAR     72  66  83 CALM      29.96S
QUAD CITIES    CLEAR     74  62  66 CALM      29.97R
$$

IAZ062-063-075>077-085>089-095>099-250400-
   SOUTHEAST IOWA

CITY           SKY/WX    TMP DP  RH WIND       PRES   REMARKS
BURLINGTON     CLEAR     73  63  70 SE5       29.96S
FAIRFIELD *    CLEAR     72  61  68 SE3       29.95S
FORT MADISON * CLEAR     77  63  61 SE3       29.97S
KEOKUK *       CLEAR     77  61  57 SE5       29.96R
OSKALOOSA *      N/A     72  63  73 SE6       29.96R
OTTUMWA        CLEAR     72  63  73 SE7       29.95R
WASHINGTON *   CLEAR     72  64  78 SE7       29.97R
$$

ABBREVIATIONS USED IN REMARKS
   TC - TEMPERATURES IN CELSIUS
  WCI - WIND CHILL INDEX
   HX - HEAT INDEX
  VSB - VISIBILITY
$$





USA.gov is the U.S. government's official web portal to all federal, state and local government web resources and services.